Tracking 31030 objects as of 17-Jul-2025
HD Live streaming from Space Station
objects crossing your sky now

STARLINK-11564

Track STARLINK-11564 now!
10-day predictions
STARLINK-11564 is classified as:


NORAD ID: 62913
Int'l Code: 2025-027G
Perigee: 361.3 km
Apogee: 365.7 km
Inclination: 43.0 °
Period: 91.7 minutes
Semi major axis: 6734 km
RCS: Unknown
Launch date: February 8, 2025
Source: United States (US)
Launch site: AIR FORCE EASTERN TEST RANGE (AFETR)
Your satellite tracking list
Your tracking list is empty




NASA's NSSDC Master Catalog

Two Line Element Set (TLE):
1 62913U 25027G   25197.69186850  .00150612  00000-0  11536-2 0  9997
2 62913  43.0001 330.3744 0003325 280.1581  79.8912 15.70887868 26038
Source of the keplerian elements: AFSPC